Regional Weather Roundup
Issued by NWS

Home | Current Version | Previous Version | Text Only | Print | Product List | Glossary Off
Versions: 1 2 3 4 5 6 7 8 9 10 11 12 13 14 15 16 17 18 19 20 21 22 23 24 25 26 27

000
ASUS45 KBOU 210607
RWRCO

WEATHER ROUNDUP FOR COLORADO
NATIONAL WEATHER SERVICE DENVER/BOULDER CO
1100 PM MST MON FEB 20 2017

NOTE: "FAIR" INDICATES FEW OR NO CLOUDS BELOW 12000 FEET WITH NO
SIGNIFICANT WEATHER AND/OR OBSTRUCTIONS TO VISIBILITY.

COZ001>005-013-030-031-210700-
...NORTHWEST COLORADO...

CITY           SKY/WX    TMP DP  RH WIND       PRES   REMARKS
CRAIG          CLOUDY    31  27  85 S3        30.17S
HAYDEN         MOCLDY    34  25  69 SW3       30.18R
MEEKER         MOCLDY    35  31  85 CALM      30.20R
MOUNT WERNER   NOT AVBL
STEAMBOAT SPGS CLOUDY    33  27  80 CALM      30.18R
WALDEN         NOT AVBL
$$

COZ006>008-011-210700-
...WEST CENTRAL VALLEYS...

CITY           SKY/WX    TMP DP  RH WIND       PRES   REMARKS
GRAND JUNCTION MOCLDY    39  37  92 E3        30.23R
MONTROSE       FAIR      39  31  72 SE6       30.30R
EAGLE          CLEAR     32  27  80 CALM      30.23R
RIFLE          FAIR      36  31  82 SE9       30.22R
DELTA          FAIR      42  33  70 CALM      30.27R
NUCLA          CLOUDY    45  32  61 E5        30.33S
$$

COZ017>023-064>068-210700-
...SOUTHWEST COLORADO...

CITY           SKY/WX    TMP DP  RH WIND       PRES   REMARKS
DURANGO        FAIR      33  26  75 N5        30.35R WCI  29
CORTEZ         MOCLDY    36  34  92 CALM      30.34R
PAGOSA SPRINGS FAIR      28  27  96 NE3       30.37R
TELLURIDE      FAIR      37  19  47 CALM      30.36R
WOLF CREEK PAS HVY SNOW  21  21 100 SW23G31   30.43S VSB 1/4 WCI   5
$$

COZ009-010-012-014-032>034-037-058>063-210700-
...CENTRAL COLORADO...

CITY           SKY/WX    TMP DP  RH WIND       PRES   REMARKS
ASPEN          CLOUDY    30  22  72 CALM      30.22R
BUENA VISTA    FAIR      30  19  65 CALM      30.22S
COPPER MTN     CLOUDY    32   9  37 SW9G18    30.31S WCI  24
BERTHOUD PASS  CLOUDY    25  14  63 W29G38    30.26S WCI   8
COTTONWOOD PAS FAIR      37   9  30 NW12G18   30.26S
GUNNISON       FAIR      20  18  92 CALM      30.33R
KREMMLING      CLOUDY    37  28  70 E10       30.18F
LEADVILLE      MOCLDY    24   9  52 CALM      30.25S
MONARCH PASS   FAIR      23  12  63 SW26      30.43S WCI   6
SALIDA         FAIR      43  16  34 W6        30.29S
SUNLIGHT       NOT AVBL
WILKERSON PASS FAIR      30   5  34 SW18G26   30.30R WCI  18
$$

COZ069>075-210700-
...SAN LUIS VALLEY/SANGRE DE CRISTO MOUNTAINS...

CITY           SKY/WX    TMP DP  RH WIND       PRES   REMARKS
ALAMOSA        FAIR      27  24  89 CALM      30.28R
LA VETA PASS   FAIR      30  16  55 NE32G40   30.28R WCI  15
SAGUACHE       FAIR      30  19  64 CALM      30.29R
$$

COZ035-036-038>040-210700-
...NORTHERN COLORADO FRONT RANGE...

CITY           SKY/WX    TMP DP  RH WIND       PRES   REMARKS
DENVER INTL AP FAIR      48  12  23 SW17      29.99S
DMNS CITY PARK   N/A     46  12  24 S5G12     30.00R
AURORA         PTCLDY    47  10  21 S16       30.00S
FRONT RANGE AP FAIR      45  12  26 SE5       30.00S
ERIE MUNI ARPT FAIR      40  15  35 N5        29.98F
BOULDER MUN AP FAIR      43  16  33 N6        29.99R
CENTENNIAL     FAIR      51   9  18 S8G17     30.01F
BROOMFIELD     FAIR      45  14  29 SW3       30.00F
FORT COLLINS   FAIR      48  18  30 E6        29.99F
LONGMONT       FAIR      39  18  42 S3        29.99F
$$

COZ041-046-047-076>085-087-088-210700-
...PIKES PEAK/PALMER DIVIDE AND SOUTHERN FOOTHILLS...

CITY           SKY/WX    TMP DP  RH WIND       PRES   REMARKS
COLO. SPRINGS  FAIR      38   5  25 NE8       30.10F
A. F. ACADEMY  FAIR      35   6  29 W5        30.09F WCI  31
SCHRIEVER AFB  FAIR      39   7  26 S3        30.10F
ELLICOTT       FAIR     N/A N/A N/A S9        30.08F
FALCON         FAIR      38   4  24 S10       30.11F
FORT CARSON    FAIR      38   7  28 NW3       30.08F
LIMON          FAIR      40  13  33 S9        30.05F
MONUMENT HILL  FAIR      37   7  28 S12       30.11S
TRINIDAD       FAIR      37  10  32 W14       30.12S
$$

COZ042>045-048>051-090-091-210700-
...NORTHEAST COLORADO...

CITY           SKY/WX    TMP DP  RH WIND       PRES   REMARKS
GREELEY ARPT   FAIR      32  18  56 CALM      29.99F
AKRON          FAIR      44  15  31 S12       30.01R
BURLINGTON     FAIR      40  13  33 S14       30.03S
WRAY           NOT AVBL
STERLING       FAIR      32  21  64 S6        29.98S WCI  26
HOLYOKE        FAIR      34  18  51 SW9       29.99S WCI  26
FORT MORGAN    FAIR      39  15  36 S7        29.99F
$$

COZ086-089-092>099-210700-
...SOUTHEAST COLORADO...

CITY           SKY/WX    TMP DP  RH WIND       PRES   REMARKS
PUEBLO         FAIR      33  11  39 W6        30.07R WCI  28
LA JUNTA       FAIR      42  15  33 SW7       30.06S
LAMAR          FAIR      30  12  47 NW6       30.04F WCI  24
SPRINGFIELD      N/A     31  13  47 SW9       30.09S WCI  23
$$




USA.gov is the U.S. government's official web portal to all federal, state and local government web resources and services.